DAL196 RKSI-KSEA

Flight info

Callsign DAL196
Flight time N/A
Altitude 37000
Route EGOBA2H EGOBA Y697 KAE Y437 TENAS L512 GTC Y512 ADNAP R591 ADGOR DCT 45N160E/N0480F390 46N170E 46N180E 47N170W 48N160W/N0491F410 49N150W 50N140W DCT ORNAI DCT TOU MARNR8
Aircraft A359/H-SDE2E3GHIJ3J4J5LM1ORWXY/LB1D1

Departure

Time 2026-05-07 05:01
Airport Incheon International Airport (RKSI)

Arrival

Time N/A
Airport Seattle–Tacoma International Airport (KSEA)
Time Latitude Longitude Altitude Speed Heading
2026-05-07 04:37 37.46810 126.44059 38 ft 0 kts 221°
2026-05-07 04:49 37.46811 126.44060 38 ft 2 kts 221°
2026-05-07 04:49 37.46830 126.44080 37 ft 4 kts 220°
2026-05-07 04:49 37.46851 126.44102 37 ft 4 kts 221°
2026-05-07 04:49 37.46870 126.44126 36 ft 4 kts 236°
2026-05-07 04:50 37.46878 126.44150 34 ft 4 kts 304°
2026-05-07 04:50 37.46862 126.44173 35 ft 3 kts 313°
2026-05-07 04:50 37.46859 126.44176 34 ft 0 kts 313°
2026-05-07 04:56 37.46864 126.44169 38 ft 4 kts 314°
2026-05-07 04:56 37.46900 126.44122 38 ft 11 kts 314°
2026-05-07 04:56 37.46981 126.44125 38 ft 16 kts 40°
2026-05-07 04:56 37.47062 126.44249 38 ft 21 kts 54°
2026-05-07 04:57 37.47168 126.44268 38 ft 16 kts 328°
2026-05-07 04:57 37.47260 126.44183 38 ft 17 kts 325°
2026-05-07 04:57 37.47360 126.44095 38 ft 18 kts 324°
2026-05-07 04:57 37.47465 126.44002 38 ft 20 kts 324°
2026-05-07 04:58 37.47586 126.43894 39 ft 22 kts 324°
2026-05-07 04:58 37.47714 126.43780 38 ft 23 kts 324°
2026-05-07 04:58 37.47843 126.43665 38 ft 23 kts 324°
2026-05-07 04:58 37.47979 126.43545 38 ft 24 kts 324°
2026-05-07 04:59 37.48051 126.43498 38 ft 9 kts 360°
2026-05-07 04:59 37.48097 126.43541 38 ft 8 kts 54°
2026-05-07 04:59 37.48128 126.43596 38 ft 7 kts 53°
2026-05-07 04:59 37.48144 126.43640 38 ft 4 kts 90°
2026-05-07 05:00 37.48132 126.43670 38 ft 5 kts 127°
2026-05-07 05:00 37.48106 126.43696 38 ft 5 kts 144°
2026-05-07 05:00 37.47974 126.43814 39 ft 51 kts 145°
2026-05-07 05:00 37.47529 126.44209 40 ft 104 kts 145°
2026-05-07 05:01 37.46804 126.44855 40 ft 150 kts 145°
2026-05-07 05:01 37.45978 126.45652 600 ft 146 kts 141°
2026-05-07 05:01 37.45331 126.46718 970 ft 162 kts 126°
2026-05-07 05:01 37.44701 126.48002 1161 ft 185 kts 129°
2026-05-07 05:02 37.43872 126.49363 1381 ft 206 kts 136°
2026-05-07 05:02 37.42826 126.50735 1587 ft 229 kts 141°
2026-05-07 05:02 37.41674 126.52262 1953 ft 249 kts 138°
2026-05-07 05:02 37.40505 126.53917 2628 ft 257 kts 136°
2026-05-07 05:03 37.39299 126.55634 3136 ft 270 kts 136°
2026-05-07 05:03 37.38048 126.57449 3810 ft 268 kts 136°
2026-05-07 05:03 37.36701 126.58983 4531 ft 264 kts 155°
2026-05-07 05:03 37.34987 126.59765 5036 ft 263 kts 171°
2026-05-07 05:04 37.33228 126.60397 5844 ft 263 kts 170°
2026-05-07 05:04 37.31477 126.61081 6614 ft 264 kts 169°
2026-05-07 05:04 37.29759 126.61873 7302 ft 271 kts 161°
2026-05-07 05:04 37.28225 126.63359 7993 ft 292 kts 135°
2026-05-07 05:05 37.27355 126.65729 8694 ft 312 kts 104°
2026-05-07 05:05 37.27302 126.68491 9373 ft 321 kts 89°
2026-05-07 05:05 37.27483 126.71305 9829 ft 325 kts 88°
2026-05-07 05:05 37.27677 126.74141 9936 ft 326 kts 88°
2026-05-07 05:06 37.27856 126.76985 9944 ft 327 kts 88°
2026-05-07 05:06 37.28025 126.79837 9957 ft 327 kts 88°
2026-05-07 05:06 37.28185 126.82677 9956 ft 326 kts 88°
2026-05-07 05:06 37.28341 126.85522 9950 ft 326 kts 88°
2026-05-07 05:07 37.28494 126.88363 9959 ft 327 kts 88°
2026-05-07 05:07 37.28676 126.91207 9949 ft 327 kts 85°
2026-05-07 05:07 37.28945 126.94051 9948 ft 327 kts 85°
2026-05-07 05:07 37.29221 126.96882 9949 ft 327 kts 85°
2026-05-07 05:08 37.29490 126.99719 9967 ft 328 kts 85°
2026-05-07 05:08 37.29753 127.02558 10102 ft 337 kts 85°
2026-05-07 05:08 37.30029 127.05605 10338 ft 356 kts 85°
2026-05-07 05:08 37.30313 127.08771 10610 ft 373 kts 85°
2026-05-07 05:09 37.30660 127.12070 10857 ft 390 kts 79°
2026-05-07 05:09 37.31395 127.15373 11142 ft 405 kts 72°
2026-05-07 05:09 37.32303 127.18784 11438 ft 418 kts 71°